Valentine, NE

8:59 PM CST on December 13, 2019 (GMT -0600)
Miller Field

Weather History for KVTN - October, 2019

Change the Weather History Date:

Sunday, October 6, 2019

  Actual Average Record
Temperature  
Mean Temperature 50 °F 52 °F  
Max Temperature 66 °F 67 °F 96 °F (1993)
Min Temperature 35 °F 38 °F 16 °F (1991)
Degree Days  
Heating Degree Days 14 13  
Month to date heating degree days 101 71  
Since 1 July heating degree days 154 256  
Cooling Degree Days 0 0  
Month to date cooling degree days 0 1  
Year to date cooling degree days 930 818  
Moisture  
Dew Point 32 °F    
Average Humidity 51    
Maximum Humidity 82    
Minimum Humidity 24    
Precipitation  
Precipitation 0.00 in 0.05 in 0.85 in (2016)
Month to date precipitation 0.40 0.32  
Year to date precipitation 27.30 18.07  
Snow  
Snow 0.00 in 0.10 in 3.00 in (2016)
Month to date snowfall 0.0 0.2  
Since 1 July snowfall 0.0 0.9  
Since 1 September snowfall 0.0 0.9  
Snow Depth 0.00 in    
Sea Level Pressure  
Sea Level Pressure 30.21 in    
Wind  
Wind Speed 8 mph ()    
Max Wind Speed 25 mph    
Max Gust Speed 39 mph    
Visibility 10.0 miles    
Events      
T = Trace of Precipitation, MM = Missing Value Source: Averaged Metar Reports

Daily Weather History Graph

Daily Weather History Graph

Search for Another Location

Airport or City:

Astronomy

Oct. 06, 2019 Rise Set
Actual Time 7:44 AM CDT 7:15 PM CDT
Civil Twilight 7:16 AM CDT 7:43 PM CDT
Nautical Twilight 6:43 AM CDT 8:16 PM CDT
Astronomical Twilight 6:10 AM CDT 8:48 PM CDT
Moon 4:06 PM CDT (10/6) 12:33 AM CDT (10/6)
Length of Visible Light 12h 26m
Length of Day
11h 30m
First Quarter, 60% of the Moon is Illuminated
Oct 6
First Quarter
Oct 13
Full
Oct 21
Last Quarter
Oct 27
New
Nov 4
First Quarter

Hourly Weather History & Observations

Time (CDT) Temp. Windchill Dew Point Humidity Pressure Visibility Wind Dir Wind Speed Gust Speed Precip Events Conditions
12:52 AM 46.0 °F 43.1 °F 35.1 °F 66% 30.08 in 10.0 mi WNW 5.8 mph - N/A   Partly Cloudy
1:52 AM 44.1 °F 40.8 °F 36.0 °F 73% 30.10 in 10.0 mi SW 5.8 mph - N/A   Clear
2:52 AM 48.0 °F - 36.0 °F 63% 30.12 in 10.0 mi West 6.9 mph - N/A   Mostly Cloudy
3:52 AM 52.0 °F - 34.0 °F 50% 30.12 in 10.0 mi West 10.4 mph - N/A   Overcast
4:52 AM 51.1 °F - 34.0 °F 52% 30.12 in 10.0 mi WNW 10.4 mph - N/A   Clear
5:52 AM 50.0 °F - 34.0 °F 54% 30.15 in 10.0 mi WNW 6.9 mph - N/A   Clear
6:52 AM 41.0 °F 35.8 °F 32.0 °F 70% 30.19 in 10.0 mi SW 8.1 mph - N/A   Clear
7:52 AM 37.9 °F 34.4 °F 32.0 °F 79% 30.22 in 10.0 mi West 4.6 mph - N/A   Clear
8:52 AM 44.1 °F 40.8 °F 34.0 °F 68% 30.26 in 10.0 mi WNW 5.8 mph - N/A   Clear
9:52 AM 52.0 °F - 35.1 °F 53% 30.27 in 10.0 mi WNW 10.4 mph - N/A   Clear
10:52 AM 57.9 °F - 33.1 °F 39% 30.27 in 10.0 mi WNW 16.1 mph 28.8 mph N/A   Clear
11:52 AM 61.0 °F - 30.9 °F 32% 30.27 in 10.0 mi WNW 19.6 mph 28.8 mph N/A   Clear
12:52 PM 63.0 °F - 30.9 °F 30% 30.25 in 10.0 mi WNW 18.4 mph 33.4 mph N/A   Clear
1:52 PM 64.0 °F - 30.0 °F 28% 30.25 in 10.0 mi West 23.0 mph 32.2 mph N/A   Clear
2:52 PM 64.9 °F - 27.0 °F 24% 30.22 in 10.0 mi WNW 17.3 mph 25.3 mph N/A   Clear
3:52 PM 64.9 °F - 28.9 °F 26% 30.20 in 10.0 mi WNW 13.8 mph 23.0 mph N/A   Clear
4:52 PM 64.9 °F - 28.9 °F 26% 30.20 in 10.0 mi WNW 13.8 mph 23.0 mph N/A   Clear
6:52 PM 60.1 °F - 30.9 °F 33% 30.22 in 10.0 mi WNW 5.8 mph - N/A   Clear
7:52 PM 50.0 °F - 32.0 °F 50% 30.26 in 10.0 mi West 5.8 mph - N/A   Clear
8:52 PM 48.0 °F - 30.9 °F 52% 30.26 in 10.0 mi WNW 5.8 mph - N/A   Clear
9:52 PM 46.0 °F 40.6 °F 30.9 °F 56% 30.26 in 10.0 mi SW 11.5 mph - N/A   Clear
10:52 PM 39.9 °F 35.8 °F 30.0 °F 68% 30.27 in 10.0 mi WSW 5.8 mph - N/A   Clear
11:52 PM 37.9 °F 33.5 °F 28.9 °F 70% 30.27 in 10.0 mi WSW 5.8 mph - N/A   Clear